Weather in Novaya Kalami

Russia / Krasnoyarsk Krai     60°10′25″N   93°02′45″E
temp.,
°C
wind,
m/s
gust,
m/s
humid.,
%
clouds,
%
prec.,
mm/h
press.,
hPa
HPBL,
m
16 april, fri
fri1601:00+1sw81897100 1.9 1005916
04:00+1sw91997100 0.2 1001967
07:00+1wsw71798100 1.4 10001212
10:00−1wnw1697100 4.4 1002371
13:00−1wnw4891100 7.1 10031016
16:00−3nw4983100 2.1 1005938
19:00−4wnw488375 2.3 1006959
22:00−9nnw3894100 0.3 1009512
17 april, sat
sat1701:00−13nw4892100 0.4 1012740
04:00−17nw41190100 0.1 1015669
07:00−17wnw41090100 0.1 1018718
10:00−13wnw587263 0.0 1019928
13:00−9wnw4767100 0.0 10191206
16:00−7w4770100 0.1 10191473
19:00−8wsw378081 0.1 1019763
22:00−9ssw31184100 0.0 1018667
18 april, sun
sun1801:00−8ssw5138692 0.0 1016799
04:00−8ssw51387100 0.0 1014644
07:00−7ssw51190100 0.3 1014793
10:00−4ssw71584100 0.3 10121481
13:00−4ssw71387100 0.8 10111459
16:00−4nw469198 2.1 1011760
19:00−6wnw377998 2.7 1013769
22:00−13nnw0196100 0.0 101510
19 april, mon
mon1901:00−11e1196100 0.0 101417
04:00−12ene1594100 0.0 1013144
07:00−10ne2786100 0.0 1011344
10:00−7ne4667100 0.0 1009741
13:00−5nne576582 0.0 10081007
16:00−4n5871100 0.0 10081469
19:00−6n487978 0.1 1011930
22:00−9nnw398826 0.2 1015528
20 april, tue
tue2001:00−16w119850 0.2 10199
04:00−18sw1110073 0.0 102110
07:00−13w129463 0.0 102293
10:00−7nw3475100 0.0 10211015
13:00−5nw3465100 0.1 10211628
16:00−5nw4563100 0.2 10211492
19:00−7nnw3678100 0.4 1023627
22:00−14w119774 0.1 10259